FW4199 Weather Reports


time (UTC)temp
C
wind
direction
speed
KPH
gust
KPH
rain 1hr
cm
rain 24hr
cm
rain mn
cm
humidity
%
barometer
mb
20210302013810 0 337 17.7 51.5 0.00 1.22 1.22 60 999.4
20210302012805 0 337 20.9 61.2 0.00 1.22 1.22 61 999.1
20210302011529 0 0 19.3 48.3 0.00 1.22 1.22 64 999.1
20210302010520 0 315 16.1 54.7 0.00 1.22 1.22 64 999.0
20210302005530 0 315 24.1 54.7 0.00 1.22 1.22 64 998.8
20210302004528 0 315 20.9 53.1 0.00 1.22 1.22 62 998.8
20210302003654 0 315 24.1 61.2 0.00 1.22 1.22 66 999.0
20210302002612 0 337 19.3 49.9 0.00 1.22 1.22 69 998.8
20210302001521 0 337 24.1 77.2 0.00 1.22 1.22 67 998.8
20210302000554 1 337 25.7 69.2 0.00 1.22 1.22 69 999.0
20210301235530 1 0 16.1 40.2 0.00 1.22 1.22 72 998.9
20210301234526 1 315 22.5 57.9 0.00 1.22 1.22 72 998.9
20210301233533 1 337 16.1 35.4 0.00 1.22 1.22 72 998.7
20210301232715 1 337 20.9 64.4 0.00 1.22 1.22 73 998.5
20210301231527 1 315 12.9 32.2 0.00 1.22 1.22 75 998.5
20210301230530 1 337 20.9 53.1 0.00 1.22 1.22 74 998.3
20210301225525 2 337 22.5 64.4 0.00 1.22 1.22 73 998.0
20210301224529 2 315 22.5 57.9 0.00 1.22 1.22 75 998.0
20210301223522 2 315 20.9 75.6 0.00 1.22 1.22 76 997.5
20210301222633 2 337 22.5 53.1 0.00 1.22 1.22 76 996.9
20210301221525 2 315 14.5 37.0 0.00 1.22 1.22 79 997.0
20210301220524 3 315 17.7 43.5 0.00 1.22 1.22 79 996.5
20210301215525 3 315 19.3 43.5 0.00 1.22 1.22 80 996.3
20210301214555 3 315 17.7 38.6 0.00 1.22 1.22 82 996.3
20210301213716 3 337 20.9 66.0 0.00 1.22 1.22 85 995.6
20210301212733 3 315 16.1 43.5 0.00 1.22 1.22 87 995.3
20210301211533 3 337 22.5 64.4 0.00 1.22 1.22 88 995.3
20210301210536 3 337 24.1 57.9 0.00 1.22 1.22 94 994.6
20210301205540 3 315 17.7 46.7 0.00 1.22 1.22 100 994.4
20210301204537 3 337 16.1 46.7 0.00 1.22 1.22 100 994.4
20210301203524 3 315 16.1 41.8 0.00 1.22 1.22 100 994.5
20210301202554 3 315 16.1 48.3 0.00 1.22 1.22 100 994.4
20210301201526 3 337 16.1 43.5 0.00 1.22 1.22 100 994.4
20210301200600 3 337 16.1 33.8 0.00 1.22 1.22 100 993.8
20210301195529 3 337 11.3 41.8 0.00 1.22 1.22 100 993.8
20210301194535 3 315 8.0 24.1 0.00 1.22 1.22 100 993.8
20210301193551 3 0 6.4 17.7 0.00 1.22 1.22 100 993.9
20210301192558 3 0.0 4.8 0.00 1.22 1.22 100 994.4
20210301191522 3 0.0 4.8 0.00 1.22 1.22 100 994.4
20210301190522 3 0.0 3.2 0.00 1.22 1.22 100 994.8
20210301185521 3 0.0 0.0 0.00 1.22 1.22 100 994.9
20210301184524 3 0.0 0.0 0.00 1.22 1.22 100 994.9
20210301183717 3 0.0 6.4 0.00 1.22 1.22 100 995.4
20210301182630 3 0.0 3.2 0.00 1.22 1.22 100 995.2
20210301181520 3 0 1.6 8.0 0.00 1.22 1.22 100 995.2
20210301180530 3 0.0 4.8 0.00 1.22 1.22 100 995.4
20210301175523 3 0.0 6.4 0.03 1.22 1.22 100 995.8
20210301174526 3 0.0 6.4 0.03 1.22 1.22 100 995.8
20210301173525 3 0 1.6 11.3 0.03 1.22 1.22 100 996.2
20210301172538 3 0 1.6 16.1 0.03 1.22 1.22 100 996.4
20210301171527 3 0 3.2 11.3 0.03 1.22 1.22 100 996.4
20210301170524 2 22 9.7 29.0 0.03 1.22 1.22 100 996.9
20210301165531 2 22 6.4 29.0 0.00 1.19 1.19 100 997.3
20210301164522 2 0 6.4 24.1 0.00 1.19 1.19 100 997.3
20210301163539 2 337 6.4 17.7 0.00 1.19 1.19 100 997.5
20210301162645 2 22 12.9 30.6 0.00 1.19 1.19 100 997.4
20210301161524 2 337 11.3 27.4 0.00 1.19 1.19 100 997.4
20210301160547 2 0 11.3 24.1 0.00 1.19 1.19 100 997.5
20210301155520 2 337 6.4 22.5 0.00 1.19 1.19 100 997.6
20210301154534 2 0 6.4 20.9 0.00 1.19 1.19 100 997.6
20210301153545 2 315 6.4 27.4 0.00 1.19 1.19 100 998.0
20210301152823 2 0 4.8 20.9 0.00 1.19 1.19 100 998.2
20210301151529 2 337 3.2 11.3 0.00 1.19 1.19 100 998.2
20210301150522 2 0 3.2 17.7 0.00 1.19 1.19 100 998.7
20210301145521 2 22 3.2 14.5 0.00 1.19 1.19 100 998.6
20210301144523 2 0.0 4.8 0.00 1.19 1.19 100 998.6
20210301143521 2 45 1.6 6.4 0.00 1.19 1.19 100 998.9
20210301142741 2 45 4.8 14.5 0.03 1.19 1.19 100 999.6
20210301141526 2 0.0 6.4 0.03 1.19 1.19 100 999.6
20210301140540 2 45 1.6 9.7 0.03 1.19 1.19 100 999.8
20210301135556 2 45 3.2 14.5 0.03 1.19 1.19 100 999.7
20210301134540 2 45 1.6 9.7 0.05 1.19 1.19 100 999.7
20210301133525 2 45 1.6 8.0 0.05 1.22 1.19 100 1000.1
20210301132531 2 45 1.6 9.7 0.03 1.19 1.17 100 1000.6
20210301131659 2 45 1.6 9.7 0.05 1.19 1.17 100 1000.6
20210301130525 2 45 4.8 17.7 0.05 1.19 1.17 100 1001.1
20210301125526 2 0 4.8 14.5 0.05 1.19 1.17 100 1001.5
20210301124527 2 0 4.8 17.7 0.05 1.17 1.14 100 1001.5
20210301123521 2 0 3.2 17.7 0.08 1.17 1.14 100 1001.8
20210301122648 2 0 3.2 9.7 0.13 1.17 1.14 100 1002.0
20210301121543 2 0 6.4 11.3 0.13 1.14 1.12 100 1002.0
20210301120542 2 0 1.6 9.7 0.15 1.14 1.12 100 1001.7
20210301115535 2 0 1.6 9.7 0.18 1.14 1.12 100 1002.3
20210301114525 2 0.0 6.4 0.20 1.12 1.09 100 1002.3
20210301113531 2 0 3.2 9.7 0.23 1.09 1.07 100 1002.5
20210301112749 2 0 1.6 6.4 0.25 1.04 1.02 100 1003.6
20210301111535 2 0.0 6.4 0.28 1.02 0.99 100 1003.6
20210301110536 2 157 3.2 6.4 0.30 0.99 0.97 100 1003.8
20210301105523 2 0 1.6 9.7 0.30 0.97 0.94 100 1004.3
20210301104527 2 0 1.6 9.7 0.33 0.91 0.89 100 1004.3
20210301103523 2 157 3.2 8.0 0.30 0.86 0.84 100 1004.7
20210301102627 2 157 1.6 6.4 0.28 0.79 0.76 100 1005.4
20210301101544 2 157 1.6 9.7 0.25 0.71 0.69 100 1005.4
20210301100528 2 0 1.6 6.4 0.25 0.66 0.64 100 1005.8
20210301095516 2 0 4.8 14.5 0.25 0.64 0.61 100 1006.0
20210301094522 2 157 3.2 8.0 0.23 0.58 0.56 100 1006.0
20210301093526 2 157 8.0 22.5 0.23 0.56 0.53 100 1006.2
20210301092702 2 180 9.7 20.9 0.20 0.51 0.48 100 1007.0
20210301091544 2 180 6.4 24.1 0.18 0.46 0.43 100 1007.0
20210301090522 2 180 4.8 14.5 0.13 0.41 0.38 100 1007.5
20210301085521 2 180 9.7 20.9 0.13 0.38 0.36 100 1007.7
20210301084521 2 157 11.3 30.6 0.13 0.33 0.33 100 1007.6
20210301083526 2 180 8.0 30.6 0.10 0.30 0.30 100 1008.3
20210301082658 2 180 11.3 29.0 0.10 0.28 0.28 100 1008.6
20210301081527 2 157 11.3 22.5 0.08 0.25 0.25 100 1008.6
20210301080522 2 180 14.5 30.6 0.10 0.25 0.25 100 1009.3
20210301075520 2 157 12.9 30.6 0.08 0.25 0.23 100 1009.6
20210301074524 2 157 17.7 33.8 0.08 0.23 0.20 100 1009.6
20210301073524 2 157 14.5 32.2 0.08 0.23 0.20 100 1010.4
20210301072608 2 180 19.3 40.2 0.08 0.20 0.18 100 1011.5
20210301071530 2 180 9.7 27.4 0.10 0.20 0.18 100 1011.4
20210301070524 2 157 11.3 25.7 0.08 0.18 0.15 100 1012.1
20210301065534 2 202 12.9 29.0 0.10 0.18 0.15 100 1012.0
20210301064534 1 157 8.0 24.1 0.10 0.15 0.13 100 1012.0
20210301063523 2 157 11.3 27.4 0.10 0.15 0.13 100 1012.2
20210301062602 1 157 11.3 20.9 0.10 0.13 0.10 99 1012.9
20210301061526 1 202 11.3 29.0 0.08 0.10 0.08 99 1013.0
20210301060523 1 180 11.3 24.1 0.08 0.10 0.08 99 1013.3
20210301055532 1 202 16.1 29.0 0.05 0.08 0.05 98 1013.7
20210301054537 1 202 11.3 24.1 0.03 0.05 0.03 98 1013.7
20210301053524 1 180 16.1 27.4 0.03 0.05 0.03 97 1013.8
20210301052636 1 180 12.9 32.2 0.00 0.03 0.00 97 1014.0
20210301051530 1 180 8.0 20.9 0.00 0.03 0.00 96 1014.0
20210301050539 1 202 9.7 19.3 0.00 0.03 0.00 95 1014.8
20210301045520 1 202 9.7 25.7 0.00 0.03 0.03 94 1014.8
20210301044525 1 202 8.0 24.1 0.00 0.03 0.03 93 1014.8
20210301043523 2 202 11.3 25.7 0.00 0.03 0.03 91 1014.9
20210301042556 2 180 8.0 24.1 0.00 0.03 0.03 90 1015.3
20210301041523 2 202 11.3 27.4 0.00 0.03 0.03 88 1015.3
20210301040535 2 180 12.9 27.4 0.00 0.03 0.03 88 1015.4
20210301035518 2 180 11.3 27.4 0.00 0.03 0.03 87 1015.9
20210301034520 2 202 12.9 33.8 0.00 0.03 0.03 86 1015.9
20210301033533 2 202 9.7 22.5 0.00 0.03 0.03 85 1016.4
20210301032615 2 180 11.3 24.1 0.00 0.03 0.03 85 1016.9
20210301031517 2 202 8.0 24.1 0.00 0.03 0.03 84 1016.9
20210301030529 2 180 12.9 32.2 0.00 0.03 0.03 84 1017.0
20210301025524 2 180 12.9 22.5 0.00 0.03 0.03 83 1017.0
20210301024522 2 180 8.0 22.5 0.00 0.03 0.03 82 1017.0
20210301023520 2 202 11.3 24.1 0.00 0.03 0.03 82 1017.9
20210301022713 2 180 8.0 20.9 0.00 0.03 0.03 81 1018.0
20210301021544 2 180 12.9 24.1 0.00 0.03 0.03 81 1018.0
20210301020523 2 157 11.3 20.9 0.00 0.03 0.03 80 1018.4
20210301015522 2 180 12.9 29.0 0.00 0.03 0.03 80 1018.8
20210301014520 2 180 11.3 27.4 0.00 0.03 0.03 80 1018.8